When you browse on this site, cookies collect data to enhance your experience and personalize the content and advertising you see.
Visit our Privacy Policy to learn more. By continuing to use the site, you agree to this use of cookies and data.
  • In Germany
  • List of Countries
  • For 7 days
  • Water Temperature
  • Weather Map
  • Weather Widgets
  • user-avatar
    Login

    Hourly Weather Ipswich

    Today, 15 September, Sunday

    Time Temperature Precipitation Wind Pressure Humidity
    00:00 +13°C° 0 mm 3 mps 769 mmHg 77%
    01:00 +13°C° 0 mm 3 mps 768 mmHg 73%
    02:00 +13°C° 0 mm 4 mps 767 mmHg 69%
    03:00 +12°C° 0 mm 4 mps 767 mmHg 65%
    04:00 +12°C° 0 mm 4 mps 767 mmHg 68%
    05:00 +12°C° 0 mm 4 mps 767 mmHg 70%
    06:00 +11°C° 0 mm 4 mps 767 mmHg 73%
    07:00 +13°C° 0 mm 4 mps 767 mmHg 70%
    08:00 +15°C° 0 mm 4 mps 767 mmHg 67%
    09:00 +18°C° 0 mm 3 mps 767 mmHg 65%
    10:00 +20°C° 0 mm 3 mps 766 mmHg 62%
    11:00 +22°C° 0 mm 3 mps 766 mmHg 59%
    12:00 +24°C° 0 mm 3 mps 766 mmHg 57%
    13:00 +25°C° 0 mm 3 mps 766 mmHg 57%
    14:00 +25°C° 0 mm 4 mps 765 mmHg 56%
    15:00 +25°C° 0 mm 4 mps 765 mmHg 56%
    16:00 +24°C° 0 mm 3 mps 765 mmHg 61%
    17:00 +22°C° 0 mm 3 mps 765 mmHg 66%
    18:00 +21°C° 0 mm 2 mps 765 mmHg 71%
    19:00 +20°C° 0 mm 2 mps 765 mmHg 74%
    20:00 +20°C° 0 mm 2 mps 765 mmHg 78%
    21:00 +19°C° 0 mm 2 mps 765 mmHg 81%
    22:00 +19°C° 0 mm 2 mps 765 mmHg 83%
    23:00 +18°C° 0 mm 2 mps 764 mmHg 85%

    Tomorrow, 16 September, Monday

    Time Temperature Precipitation Wind Pressure Humidity
    00:00 +18°C° 0 mm 2 mps 764 mmHg 87%
    01:00 +18°C° 0 mm 2 mps 764 mmHg 88%
    02:00 +18°C° 0 mm 2 mps 764 mmHg 88%
    03:00 +17°C° 0 mm 2 mps 763 mmHg 88%
    04:00 +18°C° 0 mm 3 mps 763 mmHg 88%
    05:00 +18°C° 0 mm 3 mps 763 mmHg 87%
    06:00 +18°C° 0 mm 4 mps 763 mmHg 87%
    07:00 +18°C° 0 mm 4 mps 763 mmHg 86%
    08:00 +18°C° 0 mm 4 mps 764 mmHg 86%
    09:00 +17°C° 0 mm 4 mps 764 mmHg 85%
    10:00 +18°C° 0.1 mm 4 mps 764 mmHg 82%
    11:00 +18°C° 0.1 mm 4 mps 764 mmHg 79%
    12:00 +18°C° 0.1 mm 4 mps 764 mmHg 76%
    13:00 +18°C° 0 mm 4 mps 765 mmHg 73%
    14:00 +18°C° 0 mm 4 mps 765 mmHg 71%
    15:00 +18°C° 0 mm 3 mps 765 mmHg 69%
    16:00 +17°C° 0 mm 3 mps 765 mmHg 69%
    17:00 +16°C° 0 mm 3 mps 765 mmHg 69%
    18:00 +16°C° 0 mm 3 mps 765 mmHg 70%
    19:00 +14°C° 0 mm 3 mps 766 mmHg 73%
    20:00 +12°C° 0 mm 3 mps 766 mmHg 75%
    21:00 +11°C° 0 mm 3 mps 767 mmHg 78%
    22:00 +11°C° 0 mm 3 mps 767 mmHg 78%
    23:00 +10°C° 0 mm 2 mps 767 mmHg 77%

    Day after tomorrow, 17 September, Tuesday

    Time Temperature Precipitation Wind Pressure Humidity
    00:00 +10°C° 0 mm 2 mps 767 mmHg 76%
    01:00 +10°C° 0 mm 2 mps 767 mmHg 77%
    02:00 +9°C° 0 mm 2 mps 767 mmHg 77%
    03:00 +9°C° 0 mm 2 mps 767 mmHg 78%
    04:00 +9°C° 0 mm 3 mps 767 mmHg 81%
    05:00 +8°C° 0 mm 3 mps 767 mmHg 84%
    06:00 +8°C° 0 mm 3 mps 767 mmHg 86%
    07:00 +10°C° 0 mm 3 mps 767 mmHg 79%
    08:00 +12°C° 0 mm 4 mps 768 mmHg 71%
    09:00 +13°C° 0 mm 4 mps 768 mmHg 64%
    10:00 +14°C° 0 mm 4 mps 768 mmHg 59%
    11:00 +15°C° 0 mm 4 mps 768 mmHg 55%
    12:00 +17°C° 0 mm 4 mps 768 mmHg 51%
    13:00 +17°C° 0 mm 4 mps 768 mmHg 51%
    14:00 +17°C° 0 mm 4 mps 768 mmHg 51%
    15:00 +16°C° 0 mm 5 mps 768 mmHg 52%
    16:00 +15°C° 0 mm 4 mps 768 mmHg 56%
    17:00 +13°C° 0 mm 4 mps 768 mmHg 61%
    18:00 +12°C° 0 mm 4 mps 768 mmHg 65%
    19:00 +11°C° 0 mm 3 mps 768 mmHg 67%
    20:00 +11°C° 0 mm 3 mps 768 mmHg 70%
    21:00 +10°C° 0 mm 3 mps 769 mmHg 72%
    22:00 +10°C° 0 mm 3 mps 769 mmHg 72%
    23:00 +9°C° 0 mm 2 mps 769 mmHg 73%

    18 September, Wednesday

    Time Temperature Precipitation Wind Pressure Humidity
    00:00 +9°C° 0 mm 2 mps 769 mmHg 73%
    01:00 +9°C° 0 mm 2 mps 769 mmHg 74%
    02:00 +9°C° 0 mm 2 mps 769 mmHg 75%
    03:00 +9°C° 0 mm 2 mps 769 mmHg 76%
    04:00 +9°C° 0 mm 2 mps 769 mmHg 74%
    05:00 +9°C° 0 mm 2 mps 769 mmHg 73%
    06:00 +10°C° 0 mm 2 mps 769 mmHg 71%
    07:00 +10°C° 0 mm 2 mps 769 mmHg 70%
    08:00 +12°C° 0 mm 1 mps 769 mmHg 68%
    09:00 +13°C° 0 mm 1 mps 769 mmHg 66%
    10:00 +13°C° 0 mm 1 mps 769 mmHg 64%
    11:00 +14°C° 0 mm 1 mps 769 mmHg 62%
    12:00 +14°C° 0 mm 1 mps 769 mmHg 61%
    13:00 +15°C° 0 mm 1 mps 769 mmHg 60%
    14:00 +15°C° 0 mm 1 mps 769 mmHg 60%
    15:00 +16°C° 0 mm 2 mps 769 mmHg 60%
    16:00 +15°C° 0 mm 2 mps 769 mmHg 66%
    17:00 +14°C° 0 mm 2 mps 769 mmHg 72%
    18:00 +14°C° 0 mm 2 mps 769 mmHg 78%
    19:00 +14°C° 0 mm 2 mps 770 mmHg 80%
    20:00 +12°C° 0 mm 3 mps 770 mmHg 82%
    21:00 +12°C° 0 mm 3 mps 770 mmHg 84%
    22:00 +12°C° 0 mm 3 mps 771 mmHg 86%
    23:00 +11°C° 0 mm 3 mps 771 mmHg 88%

    19 September, Thursday

    Time Temperature Precipitation Wind Pressure Humidity
    00:00 +11°C° 0 mm 3 mps 771 mmHg 90%
    01:00 +11°C° 0 mm 4 mps 771 mmHg 85%
    02:00 +11°C° 0 mm 4 mps 771 mmHg 81%
    03:00 +11°C° 0 mm 4 mps 771 mmHg 76%
    04:00 +10°C° 0 mm 4 mps 771 mmHg 78%
    05:00 +8°C° 0 mm 4 mps 772 mmHg 79%
    06:00 +8°C° 0 mm 4 mps 772 mmHg 81%
    07:00 +10°C° 0 mm 4 mps 772 mmHg 73%
    08:00 +12°C° 0 mm 4 mps 773 mmHg 66%
    09:00 +13°C° 0 mm 4 mps 773 mmHg 59%
    10:00 +14°C° 0 mm 4 mps 773 mmHg 55%
    11:00 +15°C° 0 mm 4 mps 773 mmHg 51%
    12:00 +17°C° 0 mm 4 mps 774 mmHg 47%
    13:00 +17°C° 0 mm 4 mps 773 mmHg 47%
    14:00 +16°C° 0 mm 5 mps 773 mmHg 48%
    15:00 +15°C° 0 mm 5 mps 773 mmHg 49%
    16:00 +14°C° 0 mm 5 mps 773 mmHg 53%
    17:00 +13°C° 0 mm 4 mps 774 mmHg 58%
    18:00 +12°C° 0 mm 4 mps 774 mmHg 63%
    19:00 +11°C° 0 mm 4 mps 774 mmHg 66%
    20:00 +10°C° 0 mm 3 mps 774 mmHg 68%
    21:00 +10°C° 0 mm 3 mps 775 mmHg 71%
    22:00 +9°C° 0 mm 3 mps 775 mmHg 72%
    23:00 +9°C° 0 mm 2 mps 775 mmHg 74%

    20 September, Friday

    Time Temperature Precipitation Wind Pressure Humidity
    00:00 +9°C° 0 mm 2 mps 774 mmHg 75%
    01:00 +9°C° 0 mm 2 mps 774 mmHg 76%
    02:00 +9°C° 0 mm 2 mps 774 mmHg 77%
    03:00 +9°C° 0 mm 2 mps 774 mmHg 77%
    04:00 +9°C° 0 mm 2 mps 774 mmHg 78%
    05:00 +8°C° 0 mm 2 mps 773 mmHg 79%
    06:00 +8°C° 0 mm 2 mps 773 mmHg 80%
    07:00 +10°C° 0 mm 2 mps 773 mmHg 74%
    08:00 +13°C° 0 mm 2 mps 773 mmHg 67%
    09:00 +15°C° 0 mm 2 mps 773 mmHg 60%
    10:00 +16°C° 0 mm 2 mps 773 mmHg 56%
    11:00 +17°C° 0 mm 2 mps 772 mmHg 52%
    12:00 +18°C° 0 mm 3 mps 772 mmHg 48%
    13:00 +18°C° 0 mm 3 mps 771 mmHg 49%
    14:00 +18°C° 0 mm 3 mps 770 mmHg 50%
    15:00 +18°C° 0 mm 4 mps 770 mmHg 51%
    16:00 +15°C° 0 mm 4 mps 769 mmHg 58%
    17:00 +14°C° 0 mm 3 mps 769 mmHg 64%
    18:00 +12°C° 0 mm 3 mps 768 mmHg 70%
    19:00 +12°C° 0 mm 3 mps 768 mmHg 73%
    20:00 +12°C° 0 mm 3 mps 768 mmHg 75%
    21:00 +11°C° 0 mm 3 mps 767 mmHg 78%
    22:00 +11°C° 0 mm 4 mps 767 mmHg 77%
    23:00 +11°C° 0 mm 4 mps 766 mmHg 76%
    Show more